Regional Weather Roundup
Issued by NWS

Home | Current Version | Previous Version | Graphics & Text | Print | Product List | Glossary On
Versions: 1 2 3 4 5 6 7 8 9 10 11 12 13 14 15 16 17 18 19 20 21 22 23 24 25 26 27 28 29 30 31 32 33 34 35 36 37 38 39 40 41 42 43 44 45 46 47 48 49 50
000
ASUS43 KMKX 232100
RWRWI

WISCONSIN REGIONAL WEATHER ROUNDUP
NATIONAL WEATHER SERVICE MILWAUKEE/SULLIVAN WI
400 PM CDT THU OCT 23 2014

NOTE: "FAIR" INDICATES FEW OR NO CLOUDS BELOW 12,000 FEET WITH NO
SIGNIFICANT WEATHER AND/OR OBSTRUCTIONS TO VISIBILITY.

WIZ001-002-006>008-014>016-023>028-232200-
NORTHWEST WISCONSIN

CITY           SKY/WX    TMP DP  RH WIND       PRES   REMARKS
SUPERIOR ARPT  PTSUNNY   58  50  75 SW5       29.94F
ASHLAND        CLOUDY    54  49  83 SW8       29.97S
HAYWARD        CLOUDY    52  49  89 S7        29.98S
SIREN          CLOUDY    58  50  76 SW3       29.97S
CUMBERLAND     CLOUDY    52  48  87 W5        29.98S
RICE LAKE      CLOUDY    53  50  89 S5        30.00S
CHETEK         CLOUDY    51  50  98 SE6       29.99F FOG
LADYSMITH      CLOUDY    49  48  97 S5        30.01F FOG
EAU CLAIRE     CLOUDY    52  50  93 S6        29.99S FOG
MENOMONIE      CLOUDY    53  52  96 S3        30.00S FOG
NEW RICHMOND   MOSUNNY   60  51  70 S5        29.98S
OSCEOLA        SUNNY     63  53  70 S5        29.99S
$$

WIZ003>005-009-010-017-018-232200-
NORTH CENTRAL WISCONSIN

CITY           SKY/WX    TMP DP  RH WIND       PRES   REMARKS
MANITOWISH WTR CLOUDY    45  45 100 S5        29.99S FOG
ARBOR VITAE    CLOUDY    45  44  95 SW3       30.00S FOG
WOODRUFF       CLOUDY    45  44  95 SW3       30.00S FOG
RHINELANDER    CLOUDY    44  43  96 S6        30.02S
EAGLE RIVER    LGT RAIN  44  44 100 S6        30.00F
LAND O LAKES   DRIZZLE   45  44  97 S6        30.01R
PHILLIPS       CLOUDY    46  46  98 SW5       30.00S
TOMAHAWK       CLOUDY    45  44  95 CALM      30.01F FOG
MEDFORD        CLOUDY    46  45  98 S6        30.01F FOG
MERRILL        CLOUDY    45  45  99 S3        30.02S FOG
$$

WIZ029-030-035-036-043>047-232200-
CENTRAL WISCONSIN

CITY           SKY/WX    TMP DP  RH WIND       PRES   REMARKS
WAUSAU         CLOUDY    46  45  96 S6        30.01S FOG
MOSINEE        CLOUDY    46  46 100 S5        30.03S FOG
MARSHFIELD     FOG       48  46  93 S5        30.01S VSB 1/2
STEVENS POINT  CLOUDY    45  44  97 S5        30.03S FOG
WAUPACA        LGT RAIN  49  47  95 SE5       30.04F
WAUTOMA        LGT RAIN  46  46 100 SE3       30.04F VSB 3/4
WISC RAPIDS    CLOUDY    47  45  93 S5        30.04S
CAMP DOUGLAS   NOT AVBL
$$

WIZ011>013-019>022-031-037>040-048>050-232200-
NORTHEAST WISCONSIN

CITY           SKY/WX    TMP DP  RH WIND       PRES   REMARKS
ANTIGO         CLOUDY    44  43  98 S5        30.03S FOG
SHAWANO        DRIZZLE   49  46  92 S3        30.05S
OCONTO         CLOUDY    50  47  90 W3        30.05F
STURGEON BAY   CLOUDY    52  43  71 S8        30.06F
GREEN BAY      LGT RAIN  50  47  89 SW5       30.05F FOG
MANITOWOC      NOT AVBL
APPLETON       LGT RAIN  48  45  87 S8        30.05F FOG
CLINTONVILLE   DRIZZLE   46  45  93 S6        30.04F
OSHKOSH        LGT RAIN  50  48  93 CALM      30.06R FOG
$$

WIZ032>034-041-042-053>061-232200-
SOUTHWEST WISCONSIN

CITY           SKY/WX    TMP DP  RH WIND       PRES   REMARKS
LA CROSSE      CLOUDY    50  48  93 S7        30.02F FOG
SPARTA         CLOUDY    47  46  97 CALM      30.04S FOG
VIROQUA        CLOUDY    47  47 100 SW6       30.02S
BOSCOBEL       CLOUDY    50  47  89 SW3       30.04S
PRAIRIE DU CHI CLOUDY    49  47  92 CALM      30.03S FOG
PLATTEVILLE    CLOUDY    50  49  93 S6        30.04F
$$

WIZ056-057-062-063-064-067-068-232200-
SOUTH CENTRAL WISCONSIN

CITY           SKY/WX    TMP DP  RH WIND       PRES   REMARKS
REEDSBURG      CLOUDY    47  46  95 SW7       30.03F
BARABOO/DELLS  CLOUDY    47  45  91 SW6       30.04S
LONE ROCK      NOT AVBL
MINERAL POINT  LGT RAIN  50  46  87 S5        30.04S
MADISON        CLOUDY    52  47  83 S3        30.05R
MIDDLETON      CLOUDY    52  49  90 CALM      30.05S
WATERTOWN      RAIN      51  50  95 SE7       30.03F
MONROE         RAIN      52  48  87 S10       30.03S
JANESVILLE     CLOUDY    59  45  58 S6        30.04F
$$

WIZ051-052-058>065-066-070>072-232200-
SOUTHEAST WISCONSIN

CITY           SKY/WX    TMP DP  RH WIND       PRES   REMARKS
MILWAUKEE      CLOUDY    55  43  63 S9        30.07S
WAUKESHA       CLOUDY    55  41  58 S3        30.07R
MILWAUKEE/TIMM NOT AVBL
RACINE         CLOUDY    54  45  71 S13       30.08F
BURLINGTON     DRIZZLE   56  41  56 S8        30.06S
KENOSHA        CLOUDY    58  43  57 S8        30.06F
FOND DU LAC    LGT RAIN  51  46  83 S10       30.06R
SHEBOYGAN      LGT RAIN  51  46  83 S12       30.08R
WEST BEND      DRIZZLE   52  45  76 E3        30.07R
JUNEAU         RAIN      49  47  91 CALM      30.06F
$$

LSZ147-162-232200-
LAKE SUPERIOR

STATION/POSITION TIME  TEMP    WIND        PRES    WAVE
                       AIR SEA DIR/SP/G            HT/PER
                 (UTC) (F)     (DEG/KT/KT) (MB)    (FT/S)
W MID LAKE BUOY  1950   47 46  190/  6/  6 1014.9F   1/ 3
DEVILS ISLAND    2000   50     240/  4/  5 1014.8F
PORT WING        2000   52     280/  4/  6 1014.6F
SAXON HARBOR     2040   54     220/  7/ 14 1014.6F
$$

LMZ867-665-643>646-232200-
LAKE MICHIGAN

STATION/POSITION TIME  TEMP    WIND        PRES    WAVE
                       AIR SEA DIR/SP/G            HT/PER
                 (UTC) (F)     (DEG/KT/KT) (MB)    (FT/S)
CHAMBERS ISLAND  2000   53     150/  3/  8 1017.9F
N MID LAKE BUOY  1950   50 51  200/ 17/ 19 1018.9F   3/ 5
NORTHPORT PIER   2000   52     170/  6/ 18 1018.3F
SISTER BAY       1913          170/ 15/ 18   N/A
ALGOMA LAKESHORE 1941          220/ 18/ 20   N/A
KEWAUNEE LAKESHO 2000   50     170/ 12/ 14 1017.5F
SHEBOYGAN LAKESH 2000   51 50  140/ 13/ 14 1018.5F
PORT WASHINGTON  2040   53     190/  9/ 12 1019.0F
ATWATER BUOY     2000   52     150/ 16/ 19 1019.0F
MILWAUKEE LAKESH 2015   52     150/ 18/ 20   N/A
S MID LAKE BUOY  1950   53 54  180/ 14/ 16 1020.0F
KENOSHA   LAKESH 2000   54     160/ 16/ 18 1018.6S
$$

TC  - TEMPERATURE IN CELSIUS
VSB - VISIBILITY IN STATUTE MILES
WCI - WIND CHILL INDEX
HX  - HEAT INDEX




USA.gov is the U.S. government's official web portal to all federal, state and local government web resources and services.